Terminal Aerodrome Forecast
Issued by NWS

Home | Current Version | Previous Version | Text Only | Print | Product List | Glossary On
Versions: 1 2 3 4 5 6 7 8 9 10 11 12 13
000
FTUS46 KSTO 311700
TAFMHR
TAF
KMHR 311725Z 3118/0118 21007KT P6SM FEW200
     FM010600 14005KT P6SM SKC=

USA.gov is the U.S. government's official web portal to all federal, state and local government web resources and services.